Time,TemperatureF,DewpointF,PressureIn,WindDirection,WindDirectionDegrees,WindSpeedMPH,WindSpeedGustMPH,Humidity,HourlyPrecipIn,Conditions,Clouds,dailyrainin,SoftwareType,DateUTC
2013-05-02 00:04:00,56.4,55.0,30.30,NW,315,0.0,-999.0,95,0.00,,,0.12,Wunderground v.1.15,2013-05-02 04:04:00,
2013-05-02 00:09:00,56.3,54.9,30.30,NW,315,0.0,-999.0,95,0.00,,,0.12,Wunderground v.1.15,2013-05-02 04:09:00,
2013-05-02 00:14:00,56.3,54.9,30.30,NW,315,0.0,-999.0,95,0.00,,,0.12,Wunderground v.1.15,2013-05-02 04:14:00,
2013-05-02 00:19:00,56.3,54.9,30.30,NNW,338,0.0,-999.0,95,0.00,,,0.12,Wunderground v.1.15,2013-05-02 04:19:00,
2013-05-02 00:24:00,56.2,54.8,30.29,North,0,0.0,-999.0,95,0.00,,,0.12,Wunderground v.1.15,2013-05-02 04:24:00,
2013-05-02 00:29:00,56.2,54.8,30.30,NE,45,0.0,-999.0,95,0.01,,,0.12,Wunderground v.1.15,2013-05-02 04:29:00,
2013-05-02 00:34:00,56.2,55.1,30.30,West,270,0.0,-999.0,96,0.01,,,0.12,Wunderground v.1.15,2013-05-02 04:34:00,
2013-05-02 00:39:00,56.1,55.0,30.30,N/A,-737280,0.0,-999.0,96,0.01,,,0.12,Wunderground v.1.15,2013-05-02 04:39:00,
2013-05-02 00:44:00,56.1,55.0,30.30,N/A,-737280,0.0,-999.0,96,0.01,,,0.12,Wunderground v.1.15,2013-05-02 04:44:00,
2013-05-02 00:49:00,56.0,54.9,30.29,N/A,-737280,0.0,-999.0,96,0.01,,,0.12,Wunderground v.1.15,2013-05-02 04:49:00,
2013-05-02 00:54:00,56.0,54.9,30.30,N/A,-737280,0.0,-999.0,96,0.01,,,0.12,Wunderground v.1.15,2013-05-02 04:54:00,
2013-05-02 00:59:00,55.9,54.8,30.29,N/A,-737280,0.0,-999.0,96,0.01,,,0.12,Wunderground v.1.15,2013-05-02 04:59:00,
2013-05-02 01:04:00,55.8,54.7,30.29,N/A,-737280,0.0,-999.0,96,0.01,,,0.12,Wunderground v.1.15,2013-05-02 05:04:00,
2013-05-02 01:09:00,55.8,54.7,30.29,N/A,-737280,0.0,-999.0,96,0.01,,,0.12,Wunderground v.1.15,2013-05-02 05:09:00,
2013-05-02 01:14:00,55.8,54.7,30.29,N/A,-737280,0.0,-999.0,96,0.01,,,0.12,Wunderground v.1.15,2013-05-02 05:14:00,
2013-05-02 01:19:00,55.7,54.6,30.29,NE,45,1.0,-999.0,96,0.02,,,0.12,Wunderground v.1.15,2013-05-02 05:19:00,
2013-05-02 01:24:00,55.7,54.6,30.28,NE,45,0.0,-999.0,96,0.03,,,0.12,Wunderground v.1.15,2013-05-02 05:24:00,
2013-05-02 01:29:00,55.6,54.8,30.28,NE,45,0.0,-999.0,97,0.02,,,0.12,Wunderground v.1.15,2013-05-02 05:29:00,
2013-05-02 01:34:00,55.6,54.8,30.28,N/A,-737280,0.0,-999.0,97,0.02,,,0.12,Wunderground v.1.15,2013-05-02 05:34:00,
2013-05-02 01:39:00,55.6,54.8,30.28,North,0,0.0,-999.0,97,0.02,,,0.12,Wunderground v.1.15,2013-05-02 05:39:00,
2013-05-02 01:44:00,55.6,54.8,30.28,N/A,-737280,0.0,-999.0,97,0.02,,,0.12,Wunderground v.1.15,2013-05-02 05:44:00,
2013-05-02 01:49:00,55.5,54.7,30.28,N/A,-737280,0.0,-999.0,97,0.02,,,0.12,Wunderground v.1.15,2013-05-02 05:49:00,
2013-05-02 01:54:00,55.5,54.7,30.28,N/A,-737280,0.0,-999.0,97,0.03,,,0.12,Wunderground v.1.15,2013-05-02 05:54:00,
2013-05-02 01:59:00,55.5,54.7,30.28,N/A,-737280,0.0,-999.0,97,0.03,,,0.12,Wunderground v.1.15,2013-05-02 05:59:00,
2013-05-02 02:04:00,55.5,54.7,30.28,N/A,-737280,0.0,-999.0,97,0.03,,,0.12,Wunderground v.1.15,2013-05-02 06:04:00,
2013-05-02 02:09:00,55.4,54.6,30.28,NW,315,0.0,-999.0,97,0.03,,,0.12,Wunderground v.1.15,2013-05-02 06:09:00,
2013-05-02 02:14:00,55.4,54.6,30.28,N/A,-737280,0.0,-999.0,97,0.04,,,0.12,Wunderground v.1.15,2013-05-02 06:14:00,
2013-05-02 02:19:00,55.4,54.6,30.28,N/A,-737280,0.0,-999.0,97,0.04,,,0.12,Wunderground v.1.15,2013-05-02 06:19:00,
2013-05-02 02:24:00,55.3,54.5,30.27,North,0,0.0,-999.0,97,0.03,,,0.12,Wunderground v.1.15,2013-05-02 06:24:00,
2013-05-02 02:29:00,55.3,54.5,30.27,NNW,338,0.0,-999.0,97,0.03,,,0.12,Wunderground v.1.15,2013-05-02 06:29:00,
2013-05-02 02:34:00,55.3,54.5,30.27,N/A,-737280,0.0,-999.0,97,0.03,,,0.12,Wunderground v.1.15,2013-05-02 06:34:00,
2013-05-02 02:39:00,55.2,54.4,30.27,West,270,0.0,-999.0,97,0.04,,,0.12,Wunderground v.1.15,2013-05-02 06:39:00,
2013-05-02 02:44:00,55.2,54.6,30.27,N/A,-737280,0.0,-999.0,98,0.04,,,0.12,Wunderground v.1.15,2013-05-02 06:44:00,
2013-05-02 02:49:00,55.2,54.6,30.26,NNE,23,0.0,-999.0,98,0.04,,,0.12,Wunderground v.1.15,2013-05-02 06:49:00,
2013-05-02 02:54:00,55.2,54.6,30.26,NNW,338,0.0,-999.0,98,0.03,,,0.12,Wunderground v.1.15,2013-05-02 06:54:00,
2013-05-02 02:59:00,55.2,54.6,30.26,WSW,248,0.0,-999.0,98,0.03,,,0.12,Wunderground v.1.15,2013-05-02 06:59:00,
2013-05-02 03:04:00,55.1,54.5,30.26,NNE,23,0.0,-999.0,98,0.03,,,0.12,Wunderground v.1.15,2013-05-02 07:04:00,
2013-05-02 03:09:00,55.1,54.5,30.26,N/A,-737280,0.0,-999.0,98,0.03,,,0.12,Wunderground v.1.15,2013-05-02 07:09:00,
2013-05-02 03:14:00,55.1,54.5,30.26,N/A,-737280,0.0,-999.0,98,0.02,,,0.12,Wunderground v.1.15,2013-05-02 07:14:00,
2013-05-02 03:19:00,55.1,54.5,30.26,NE,45,0.0,-999.0,98,0.01,,,0.12,Wunderground v.1.15,2013-05-02 07:19:00,
2013-05-02 03:24:00,55.0,54.4,30.26,N/A,-737280,0.0,-999.0,98,0.03,,,0.12,Wunderground v.1.15,2013-05-02 07:24:00,
2013-05-02 03:29:00,55.1,54.5,30.26,N/A,-737280,0.0,-999.0,98,0.04,,,0.12,Wunderground v.1.15,2013-05-02 07:29:00,
2013-05-02 03:34:00,55.0,54.4,30.25,NNW,338,0.0,-999.0,98,0.04,,,0.12,Wunderground v.1.15,2013-05-02 07:34:00,
2013-05-02 03:39:00,55.1,54.5,30.26,ENE,68,1.0,-999.0,98,0.03,,,0.12,Wunderground v.1.15,2013-05-02 07:39:00,
2013-05-02 03:44:00,55.1,54.5,30.26,N/A,-737280,0.0,-999.0,98,0.04,,,0.12,Wunderground v.1.15,2013-05-02 07:44:00,
2013-05-02 03:49:00,55.1,54.5,30.25,ENE,68,0.0,-999.0,98,0.04,,,0.12,Wunderground v.1.15,2013-05-02 07:49:00,
2013-05-02 03:54:00,55.1,54.5,30.26,N/A,-737280,0.0,-999.0,98,0.04,,,0.12,Wunderground v.1.15,2013-05-02 07:54:00,
2013-05-02 03:59:00,55.2,54.6,30.26,N/A,-737280,0.0,-999.0,98,0.04,,,0.12,Wunderground v.1.15,2013-05-02 07:59:00,
2013-05-02 04:04:00,55.2,54.6,30.26,N/A,-737280,0.0,-999.0,98,0.04,,,0.12,Wunderground v.1.15,2013-05-02 08:04:00,
2013-05-02 04:09:00,55.1,54.5,30.26,N/A,-737280,0.0,-999.0,98,0.05,,,0.12,Wunderground v.1.15,2013-05-02 08:09:00,
2013-05-02 04:14:00,55.1,54.5,30.25,East,90,0.0,-999.0,98,0.05,,,0.12,Wunderground v.1.15,2013-05-02 08:14:00,
2013-05-02 04:19:00,55.1,54.5,30.26,SE,135,0.0,-999.0,98,0.05,,,0.12,Wunderground v.1.15,2013-05-02 08:19:00,
2013-05-02 04:24:00,55.1,54.5,30.26,NE,45,0.0,-999.0,98,0.03,,,0.12,Wunderground v.1.15,2013-05-02 08:24:00,
2013-05-02 04:29:00,55.1,54.5,30.26,NE,45,0.0,-999.0,98,0.02,,,0.12,Wunderground v.1.15,2013-05-02 08:29:00,
2013-05-02 04:34:00,55.1,54.5,30.26,NW,315,0.0,-999.0,98,0.02,,,0.12,Wunderground v.1.15,2013-05-02 08:34:00,
2013-05-02 04:39:00,55.1,54.5,30.26,NE,45,0.0,-999.0,98,0.02,,,0.12,Wunderground v.1.15,2013-05-02 08:39:00,
2013-05-02 04:44:00,55.1,54.5,30.26,NE,45,0.0,-999.0,98,0.01,,,0.12,Wunderground v.1.15,2013-05-02 08:44:00,
2013-05-02 04:49:00,55.1,54.5,30.26,NE,45,0.0,-999.0,98,0.01,,,0.12,Wunderground v.1.15,2013-05-02 08:49:00,
2013-05-02 04:54:00,55.1,54.5,30.26,N/A,-737280,0.0,-999.0,98,0.01,,,0.12,Wunderground v.1.15,2013-05-02 08:54:00,
2013-05-02 04:59:00,55.1,54.5,30.26,N/A,-737280,0.0,-999.0,98,0.01,,,0.12,Wunderground v.1.15,2013-05-02 08:59:00,
2013-05-02 05:04:00,55.1,54.5,30.25,N/A,-737280,0.0,-999.0,98,0.01,,,0.12,Wunderground v.1.15,2013-05-02 09:04:00,
2013-05-02 05:09:00,55.1,54.5,30.25,N/A,-737280,0.0,-999.0,98,0.00,,,0.12,Wunderground v.1.15,2013-05-02 09:09:00,
2013-05-02 05:14:00,55.0,54.4,30.25,N/A,-737280,0.0,-999.0,98,0.00,,,0.12,Wunderground v.1.15,2013-05-02 09:14:00,
2013-05-02 05:19:00,55.0,54.4,30.25,N/A,-737280,0.0,-999.0,98,0.00,,,0.12,Wunderground v.1.15,2013-05-02 09:19:00,
2013-05-02 05:24:00,54.9,54.3,30.25,ENE,68,0.0,-999.0,98,0.00,,,0.12,Wunderground v.1.15,2013-05-02 09:24:00,
2013-05-02 05:29:00,54.8,54.2,30.25,ENE,68,0.0,-999.0,98,0.00,,,0.12,Wunderground v.1.15,2013-05-02 09:29:00,
2013-05-02 05:34:00,54.8,54.2,30.25,N/A,-737280,0.0,-999.0,98,0.00,,,0.12,Wunderground v.1.15,2013-05-02 09:34:00,
2013-05-02 05:39:00,54.7,54.1,30.26,N/A,-737280,0.0,-999.0,98,0.00,,,0.12,Wunderground v.1.15,2013-05-02 09:39:00,
2013-05-02 05:44:00,54.6,54.0,30.26,ENE,68,0.0,-999.0,98,0.00,,,0.12,Wunderground v.1.15,2013-05-02 09:44:00,
2013-05-02 05:49:00,54.5,53.9,30.26,North,0,0.0,-999.0,98,0.00,,,0.12,Wunderground v.1.15,2013-05-02 09:49:00,
2013-05-02 05:54:00,54.5,53.9,30.26,North,0,0.0,-999.0,98,0.00,,,0.12,Wunderground v.1.15,2013-05-02 09:54:00,
2013-05-02 05:59:00,54.5,53.9,30.26,N/A,-737280,0.0,-999.0,98,0.00,,,0.12,Wunderground v.1.15,2013-05-02 09:59:00,
2013-05-02 06:04:00,54.4,53.8,30.26,N/A,-737280,0.0,-999.0,98,0.00,,,0.12,Wunderground v.1.15,2013-05-02 10:04:00,
2013-05-02 06:09:00,54.3,53.7,30.26,WSW,248,0.0,-999.0,98,0.00,,,0.12,Wunderground v.1.15,2013-05-02 10:09:00,
2013-05-02 06:14:00,54.3,53.7,30.26,NE,45,0.0,-999.0,98,0.00,,,0.12,Wunderground v.1.15,2013-05-02 10:14:00,
2013-05-02 06:19:00,54.3,53.7,30.26,East,90,0.0,-999.0,98,0.00,,,0.12,Wunderground v.1.15,2013-05-02 10:19:00,
2013-05-02 06:24:00,54.1,53.5,30.26,East,90,0.0,-999.0,98,0.00,,,0.12,Wunderground v.1.15,2013-05-02 10:24:00,
2013-05-02 06:29:00,54.2,53.6,30.26,N/A,-737280,0.0,-999.0,98,0.00,,,0.12,Wunderground v.1.15,2013-05-02 10:29:00,
2013-05-02 06:34:00,54.2,53.6,30.27,North,0,0.0,-999.0,98,0.00,,,0.12,Wunderground v.1.15,2013-05-02 10:34:00,
2013-05-02 06:39:00,54.2,53.6,30.27,NE,45,0.0,-999.0,98,0.00,,,0.12,Wunderground v.1.15,2013-05-02 10:39:00,
2013-05-02 06:44:00,54.1,53.5,30.27,N/A,-737280,0.0,-999.0,98,0.00,,,0.12,Wunderground v.1.15,2013-05-02 10:44:00,
2013-05-02 06:49:00,54.0,53.4,30.27,ENE,68,0.0,-999.0,98,0.00,,,0.12,Wunderground v.1.15,2013-05-02 10:49:00,
2013-05-02 06:54:00,53.8,53.2,30.27,NNW,338,0.0,-999.0,98,0.00,,,0.12,Wunderground v.1.15,2013-05-02 10:54:00,
2013-05-02 06:59:00,53.7,53.1,30.27,NE,45,0.0,-999.0,98,0.00,,,0.12,Wunderground v.1.15,2013-05-02 10:59:00,
2013-05-02 07:04:00,53.6,53.0,30.27,East,90,0.0,-999.0,98,0.00,,,0.12,Wunderground v.1.15,2013-05-02 11:04:00,
2013-05-02 07:09:00,53.5,52.9,30.27,NNE,23,0.0,-999.0,98,0.00,,,0.12,Wunderground v.1.15,2013-05-02 11:09:00,
2013-05-02 07:14:00,53.5,52.9,30.28,NE,45,0.0,-999.0,98,0.00,,,0.12,Wunderground v.1.15,2013-05-02 11:14:00,
2013-05-02 07:19:00,53.4,52.8,30.28,ENE,68,0.0,-999.0,98,0.00,,,0.12,Wunderground v.1.15,2013-05-02 11:19:00,
2013-05-02 07:24:00,53.3,52.8,30.28,N/A,-737280,0.0,-999.0,98,0.00,,,0.12,Wunderground v.1.15,2013-05-02 11:24:00,
2013-05-02 07:29:00,53.3,52.8,30.28,ENE,68,1.0,-999.0,98,0.00,,,0.12,Wunderground v.1.15,2013-05-02 11:29:00,
2013-05-02 07:31:00,53.3,52.8,30.28,ENE,68,1.0,-999.0,98,0.00,,,0.12,Wunderground v.1.15,2013-05-02 11:31:00,
2013-05-02 07:34:00,53.2,52.7,30.28,NNE,23,0.0,-999.0,98,0.00,,,0.12,Wunderground v.1.15,2013-05-02 11:34:00,
2013-05-02 07:36:00,53.2,52.7,30.28,NNE,23,0.0,-999.0,98,0.00,,,0.12,Wunderground v.1.15,2013-05-02 11:36:00,
2013-05-02 07:39:00,53.3,52.8,30.28,ENE,68,0.0,-999.0,98,0.00,,,0.12,Wunderground v.1.15,2013-05-02 11:39:00,
2013-05-02 07:41:00,53.3,52.8,30.28,ENE,68,0.0,-999.0,98,0.00,,,0.12,Wunderground v.1.15,2013-05-02 11:41:00,
2013-05-02 07:44:00,53.4,52.8,30.28,N/A,-737280,0.0,-999.0,98,0.00,,,0.12,Wunderground v.1.15,2013-05-02 11:44:00,
2013-05-02 07:46:00,53.4,52.8,30.28,N/A,-737280,0.0,-999.0,98,0.00,,,0.12,Wunderground v.1.15,2013-05-02 11:46:00,
2013-05-02 07:49:00,53.2,52.4,30.28,ENE,68,0.0,-999.0,97,0.00,,,0.12,Wunderground v.1.15,2013-05-02 11:49:00,
2013-05-02 07:51:00,53.2,52.4,30.28,ENE,68,0.0,-999.0,97,0.00,,,0.12,Wunderground v.1.15,2013-05-02 11:51:00,
2013-05-02 07:54:00,53.3,52.8,30.29,N/A,-737280,0.0,-999.0,98,0.00,,,0.12,Wunderground v.1.15,2013-05-02 11:54:00,
2013-05-02 07:56:00,53.3,52.8,30.29,N/A,-737280,0.0,-999.0,98,0.00,,,0.12,Wunderground v.1.15,2013-05-02 11:56:00,
2013-05-02 07:59:00,53.2,52.7,30.29,N/A,-737280,0.0,-999.0,98,0.00,,,0.12,Wunderground v.1.15,2013-05-02 11:59:00,
2013-05-02 08:01:00,53.2,52.7,30.29,N/A,-737280,0.0,-999.0,98,0.00,,,0.12,Wunderground v.1.15,2013-05-02 12:01:00,
2013-05-02 08:04:00,53.3,52.5,30.29,NE,45,0.0,-999.0,97,0.00,,,0.12,Wunderground v.1.15,2013-05-02 12:04:00,
2013-05-02 08:06:00,53.3,52.5,30.29,NE,45,0.0,-999.0,97,0.00,,,0.12,Wunderground v.1.15,2013-05-02 12:06:00,
2013-05-02 08:09:00,53.4,52.8,30.30,N/A,-737280,0.0,-999.0,98,0.00,,,0.12,Wunderground v.1.15,2013-05-02 12:09:00,
2013-05-02 08:11:00,53.4,52.8,30.30,N/A,-737280,0.0,-999.0,98,0.00,,,0.12,Wunderground v.1.15,2013-05-02 12:11:00,
2013-05-02 08:14:00,53.5,52.9,30.30,NW,315,0.0,-999.0,98,0.00,,,0.12,Wunderground v.1.15,2013-05-02 12:14:00,
2013-05-02 08:16:00,53.5,52.9,30.30,NW,315,0.0,-999.0,98,0.00,,,0.12,Wunderground v.1.15,2013-05-02 12:16:00,
2013-05-02 08:19:00,53.5,52.7,30.30,N/A,-737280,0.0,-999.0,97,0.00,,,0.12,Wunderground v.1.15,2013-05-02 12:19:00,
2013-05-02 08:21:00,53.5,52.7,30.30,N/A,-737280,0.0,-999.0,97,0.00,,,0.12,Wunderground v.1.15,2013-05-02 12:21:00,
2013-05-02 08:24:00,53.6,52.8,30.30,ENE,68,0.0,-999.0,97,0.00,,,0.12,Wunderground v.1.15,2013-05-02 12:24:00,
2013-05-02 08:26:00,53.6,52.8,30.30,ENE,68,0.0,-999.0,97,0.00,,,0.12,Wunderground v.1.15,2013-05-02 12:26:00,
2013-05-02 08:29:00,53.7,52.9,30.30,ENE,68,0.0,-999.0,97,0.00,,,0.12,Wunderground v.1.15,2013-05-02 12:29:00,
2013-05-02 08:31:00,53.7,52.9,30.30,ENE,68,0.0,-999.0,97,0.00,,,0.12,Wunderground v.1.15,2013-05-02 12:31:00,
2013-05-02 08:34:00,53.6,52.8,30.30,N/A,-737280,0.0,-999.0,97,0.00,,,0.12,Wunderground v.1.15,2013-05-02 12:34:00,
2013-05-02 08:36:00,53.6,52.8,30.30,N/A,-737280,0.0,-999.0,97,0.00,,,0.12,Wunderground v.1.15,2013-05-02 12:36:00,
2013-05-02 08:39:00,53.9,53.1,30.30,NNE,23,0.0,-999.0,97,0.00,,,0.12,Wunderground v.1.15,2013-05-02 12:39:00,
2013-05-02 08:41:00,53.9,53.1,30.30,NNE,23,0.0,-999.0,97,0.00,,,0.12,Wunderground v.1.15,2013-05-02 12:41:00,
2013-05-02 08:44:00,53.9,53.1,30.30,ENE,68,1.0,-999.0,97,0.00,,,0.12,Wunderground v.1.15,2013-05-02 12:44:00,
2013-05-02 08:46:00,53.9,53.1,30.30,ENE,68,1.0,-999.0,97,0.00,,,0.12,Wunderground v.1.15,2013-05-02 12:46:00,
2013-05-02 08:49:00,53.9,53.1,30.30,N/A,-737280,0.0,-999.0,97,0.00,,,0.12,Wunderground v.1.15,2013-05-02 12:49:00,
2013-05-02 08:51:00,53.9,53.1,30.30,N/A,-737280,0.0,-999.0,97,0.00,,,0.12,Wunderground v.1.15,2013-05-02 12:51:00,
2013-05-02 08:54:00,54.0,53.2,30.30,N/A,-737280,0.0,-999.0,97,0.00,,,0.12,Wunderground v.1.15,2013-05-02 12:54:00,
2013-05-02 08:56:00,54.0,53.2,30.30,N/A,-737280,0.0,-999.0,97,0.00,,,0.12,Wunderground v.1.15,2013-05-02 12:56:00,
2013-05-02 08:59:00,54.2,53.1,30.30,ENE,68,1.0,-999.0,96,0.00,,,0.12,Wunderground v.1.15,2013-05-02 12:59:00,
2013-05-02 09:01:00,54.2,53.1,30.30,ENE,68,1.0,-999.0,96,0.00,,,0.12,Wunderground v.1.15,2013-05-02 13:01:00,
2013-05-02 09:04:00,54.4,53.3,30.31,ENE,68,0.0,-999.0,96,0.00,,,0.12,Wunderground v.1.15,2013-05-02 13:04:00,
2013-05-02 09:06:00,54.4,53.3,30.31,ENE,68,0.0,-999.0,96,0.00,,,0.12,Wunderground v.1.15,2013-05-02 13:06:00,
2013-05-02 09:09:00,54.6,53.5,30.30,N/A,-737280,0.0,-999.0,96,0.00,,,0.12,Wunderground v.1.15,2013-05-02 13:09:00,
2013-05-02 09:11:00,54.6,53.5,30.30,N/A,-737280,0.0,-999.0,96,0.00,,,0.12,Wunderground v.1.15,2013-05-02 13:11:00,
2013-05-02 09:14:00,55.0,53.9,30.30,ENE,68,0.0,-999.0,96,0.00,,,0.12,Wunderground v.1.15,2013-05-02 13:14:00,
2013-05-02 09:16:00,55.0,53.9,30.30,ENE,68,0.0,-999.0,96,0.00,,,0.12,Wunderground v.1.15,2013-05-02 13:16:00,
2013-05-02 09:19:00,55.2,53.8,30.30,ENE,68,0.0,-999.0,95,0.00,,,0.12,Wunderground v.1.15,2013-05-02 13:19:00,
2013-05-02 09:21:00,55.2,53.8,30.30,ENE,68,0.0,-999.0,95,0.00,,,0.12,Wunderground v.1.15,2013-05-02 13:21:00,
2013-05-02 09:24:00,55.2,53.2,30.31,ENE,68,1.0,-999.0,93,0.00,,,0.12,Wunderground v.1.15,2013-05-02 13:24:00,
2013-05-02 09:26:00,55.2,53.2,30.31,ENE,68,1.0,-999.0,93,0.00,,,0.12,Wunderground v.1.15,2013-05-02 13:26:00,
2013-05-02 09:29:00,55.3,53.6,30.30,NE,45,0.0,-999.0,94,0.00,,,0.12,Wunderground v.1.15,2013-05-02 13:29:00,
2013-05-02 09:31:00,55.3,53.6,30.30,NE,45,0.0,-999.0,94,0.00,,,0.12,Wunderground v.1.15,2013-05-02 13:31:00,
2013-05-02 09:34:00,55.4,53.4,30.30,NNE,23,1.0,-999.0,93,0.00,,,0.12,Wunderground v.1.15,2013-05-02 13:34:00,
2013-05-02 09:36:00,55.4,53.4,30.30,NNE,23,1.0,-999.0,93,0.00,,,0.12,Wunderground v.1.15,2013-05-02 13:36:00,
2013-05-02 09:39:00,55.5,53.5,30.30,ENE,68,0.0,-999.0,93,0.00,,,0.12,Wunderground v.1.15,2013-05-02 13:39:00,
2013-05-02 09:41:00,55.5,53.5,30.30,ENE,68,0.0,-999.0,93,0.00,,,0.12,Wunderground v.1.15,2013-05-02 13:41:00,
2013-05-02 09:44:00,55.6,53.6,30.30,N/A,-737280,0.0,-999.0,93,0.00,,,0.12,Wunderground v.1.15,2013-05-02 13:44:00,
2013-05-02 09:46:00,55.6,53.6,30.30,N/A,-737280,0.0,-999.0,93,0.00,,,0.12,Wunderground v.1.15,2013-05-02 13:46:00,
2013-05-02 09:49:00,55.8,53.8,30.30,East,90,1.0,-999.0,93,0.00,,,0.12,Wunderground v.1.15,2013-05-02 13:49:00,
2013-05-02 09:51:00,55.8,53.8,30.30,East,90,1.0,-999.0,93,0.00,,,0.12,Wunderground v.1.15,2013-05-02 13:51:00,
2013-05-02 09:54:00,56.0,53.7,30.30,ENE,68,1.0,-999.0,92,0.00,,,0.12,Wunderground v.1.15,2013-05-02 13:54:00,
2013-05-02 09:56:00,56.0,53.7,30.30,ENE,68,1.0,-999.0,92,0.00,,,0.12,Wunderground v.1.15,2013-05-02 13:56:00,
2013-05-02 09:59:00,56.0,53.4,30.30,ENE,68,2.0,-999.0,91,0.00,,,0.12,Wunderground v.1.15,2013-05-02 13:59:00,
2013-05-02 10:01:00,56.0,53.4,30.30,ENE,68,2.0,-999.0,91,0.00,,,0.12,Wunderground v.1.15,2013-05-02 14:01:00,
2013-05-02 10:04:00,56.2,53.6,30.30,ENE,68,1.0,-999.0,91,0.00,,,0.12,Wunderground v.1.15,2013-05-02 14:04:00,
2013-05-02 10:06:00,56.2,53.6,30.30,ENE,68,1.0,-999.0,91,0.00,,,0.12,Wunderground v.1.15,2013-05-02 14:06:00,
2013-05-02 10:09:00,56.4,53.8,30.30,ENE,68,1.0,-999.0,91,0.00,,,0.12,Wunderground v.1.15,2013-05-02 14:09:00,
2013-05-02 10:11:00,56.4,53.8,30.30,ENE,68,1.0,-999.0,91,0.00,,,0.12,Wunderground v.1.15,2013-05-02 14:11:00,
2013-05-02 10:14:00,56.5,53.6,30.30,ENE,68,1.0,-999.0,90,0.00,,,0.12,Wunderground v.1.15,2013-05-02 14:14:00,
2013-05-02 10:16:00,56.5,53.6,30.30,ENE,68,1.0,-999.0,90,0.00,,,0.12,Wunderground v.1.15,2013-05-02 14:16:00,
2013-05-02 10:19:00,56.7,54.1,30.30,NE,45,1.0,-999.0,91,0.00,,,0.12,Wunderground v.1.15,2013-05-02 14:19:00,
2013-05-02 10:21:00,56.7,54.1,30.30,NE,45,1.0,-999.0,91,0.00,,,0.12,Wunderground v.1.15,2013-05-02 14:21:00,
2013-05-02 10:24:00,56.8,53.9,30.30,East,90,0.0,-999.0,90,0.00,,,0.12,Wunderground v.1.15,2013-05-02 14:24:00,
2013-05-02 10:26:00,56.8,53.9,30.30,East,90,0.0,-999.0,90,0.00,,,0.12,Wunderground v.1.15,2013-05-02 14:26:00,
2013-05-02 10:29:00,57.0,54.1,30.31,ENE,68,1.0,-999.0,90,0.00,,,0.12,Wunderground v.1.15,2013-05-02 14:29:00,
2013-05-02 10:31:00,57.0,54.1,30.31,ENE,68,1.0,-999.0,90,0.00,,,0.12,Wunderground v.1.15,2013-05-02 14:31:00,
2013-05-02 10:34:00,57.2,54.3,30.31,ENE,68,1.0,-999.0,90,0.00,,,0.12,Wunderground v.1.15,2013-05-02 14:34:00,
2013-05-02 10:36:00,57.2,54.3,30.31,ENE,68,1.0,-999.0,90,0.00,,,0.12,Wunderground v.1.15,2013-05-02 14:36:00,
2013-05-02 10:39:00,57.5,54.6,30.31,NE,45,1.0,-999.0,90,0.00,,,0.12,Wunderground v.1.15,2013-05-02 14:39:00,
2013-05-02 10:41:00,57.5,54.6,30.31,NE,45,1.0,-999.0,90,0.00,,,0.12,Wunderground v.1.15,2013-05-02 14:41:00,
2013-05-02 10:44:00,57.6,54.1,30.31,ENE,68,1.0,-999.0,88,0.00,,,0.12,Wunderground v.1.15,2013-05-02 14:44:00,
2013-05-02 10:46:00,57.6,54.1,30.31,ENE,68,1.0,-999.0,88,0.00,,,0.12,Wunderground v.1.15,2013-05-02 14:46:00,
2013-05-02 10:49:00,57.8,54.6,30.31,ENE,68,1.0,-999.0,89,0.00,,,0.12,Wunderground v.1.15,2013-05-02 14:49:00,
2013-05-02 10:51:00,57.8,54.6,30.31,ENE,68,1.0,-999.0,89,0.00,,,0.12,Wunderground v.1.15,2013-05-02 14:51:00,
2013-05-02 10:54:00,57.9,54.7,30.31,ENE,68,1.0,-999.0,89,0.00,,,0.12,Wunderground v.1.15,2013-05-02 14:54:00,
2013-05-02 10:56:00,57.9,54.7,30.31,ENE,68,1.0,-999.0,89,0.00,,,0.12,Wunderground v.1.15,2013-05-02 14:56:00,
2013-05-02 10:59:00,57.8,54.3,30.31,ENE,68,1.0,-999.0,88,0.00,,,0.12,Wunderground v.1.15,2013-05-02 14:59:00,
2013-05-02 11:01:00,57.8,54.3,30.31,ENE,68,1.0,-999.0,88,0.00,,,0.12,Wunderground v.1.15,2013-05-02 15:01:00,
2013-05-02 11:04:00,57.9,54.7,30.31,ENE,68,1.0,-999.0,89,0.00,,,0.12,Wunderground v.1.15,2013-05-02 15:04:00,
2013-05-02 11:06:00,57.9,54.7,30.31,ENE,68,1.0,-999.0,89,0.00,,,0.12,Wunderground v.1.15,2013-05-02 15:06:00,
2013-05-02 11:09:00,58.1,54.9,30.31,NE,45,1.0,-999.0,89,0.00,,,0.12,Wunderground v.1.15,2013-05-02 15:09:00,
2013-05-02 11:11:00,58.1,54.9,30.31,NE,45,1.0,-999.0,89,0.00,,,0.12,Wunderground v.1.15,2013-05-02 15:11:00,
2013-05-02 11:14:00,58.3,55.1,30.31,East,90,1.0,-999.0,89,0.00,,,0.12,Wunderground v.1.15,2013-05-02 15:14:00,
2013-05-02 11:16:00,58.3,55.1,30.31,East,90,1.0,-999.0,89,0.00,,,0.12,Wunderground v.1.15,2013-05-02 15:16:00,
2013-05-02 11:19:00,58.3,55.1,30.32,ENE,68,1.0,-999.0,89,0.00,,,0.12,Wunderground v.1.15,2013-05-02 15:19:00,
2013-05-02 11:21:00,58.3,55.1,30.32,ENE,68,1.0,-999.0,89,0.00,,,0.12,Wunderground v.1.15,2013-05-02 15:21:00,
2013-05-02 11:24:00,58.3,54.8,30.32,ENE,68,1.0,-999.0,88,0.00,,,0.12,Wunderground v.1.15,2013-05-02 15:24:00,
2013-05-02 11:26:00,58.3,54.8,30.32,ENE,68,1.0,-999.0,88,0.00,,,0.12,Wunderground v.1.15,2013-05-02 15:26:00,
2013-05-02 11:29:00,58.2,55.0,30.32,ENE,68,1.0,-999.0,89,0.00,,,0.12,Wunderground v.1.15,2013-05-02 15:29:00,
2013-05-02 11:31:00,58.2,55.0,30.32,ENE,68,1.0,-999.0,89,0.00,,,0.12,Wunderground v.1.15,2013-05-02 15:31:00,
2013-05-02 11:34:00,58.1,54.6,30.31,ENE,68,1.0,-999.0,88,0.00,,,0.12,Wunderground v.1.15,2013-05-02 15:34:00,
2013-05-02 11:36:00,58.1,54.6,30.31,ENE,68,1.0,-999.0,88,0.00,,,0.12,Wunderground v.1.15,2013-05-02 15:36:00,
2013-05-02 11:39:00,58.3,55.1,30.31,ENE,68,0.0,-999.0,89,0.00,,,0.12,Wunderground v.1.15,2013-05-02 15:39:00,
2013-05-02 11:41:00,58.3,55.1,30.31,ENE,68,0.0,-999.0,89,0.00,,,0.12,Wunderground v.1.15,2013-05-02 15:41:00,
2013-05-02 11:44:00,58.5,55.3,30.31,East,90,0.0,-999.0,89,0.00,,,0.12,Wunderground v.1.15,2013-05-02 15:44:00,
2013-05-02 11:46:00,58.5,55.3,30.31,East,90,0.0,-999.0,89,0.00,,,0.12,Wunderground v.1.15,2013-05-02 15:46:00,
2013-05-02 11:49:00,58.9,55.4,30.31,ENE,68,1.0,-999.0,88,0.00,,,0.12,Wunderground v.1.15,2013-05-02 15:49:00,
2013-05-02 11:51:00,58.9,55.4,30.31,ENE,68,1.0,-999.0,88,0.00,,,0.12,Wunderground v.1.15,2013-05-02 15:51:00,
2013-05-02 11:54:00,59.3,55.7,30.31,NNE,23,1.0,-999.0,88,0.00,,,0.12,Wunderground v.1.15,2013-05-02 15:54:00,
2013-05-02 11:56:00,59.3,55.7,30.31,NNE,23,1.0,-999.0,88,0.00,,,0.12,Wunderground v.1.15,2013-05-02 15:56:00,
2013-05-02 11:59:00,59.5,55.9,30.31,ENE,68,2.0,-999.0,88,0.00,,,0.12,Wunderground v.1.15,2013-05-02 15:59:00,
2013-05-02 12:01:00,59.5,55.9,30.31,ENE,68,2.0,-999.0,88,0.00,,,0.12,Wunderground v.1.15,2013-05-02 16:01:00,
2013-05-02 12:04:00,59.4,55.2,30.31,East,90,1.0,-999.0,86,0.00,,,0.12,Wunderground v.1.15,2013-05-02 16:04:00,
2013-05-02 12:06:00,59.4,55.2,30.31,East,90,1.0,-999.0,86,0.00,,,0.12,Wunderground v.1.15,2013-05-02 16:06:00,
2013-05-02 12:09:00,59.3,55.1,30.31,East,90,1.0,-999.0,86,0.00,,,0.12,Wunderground v.1.15,2013-05-02 16:09:00,
2013-05-02 12:11:00,59.3,55.1,30.31,East,90,1.0,-999.0,86,0.00,,,0.12,Wunderground v.1.15,2013-05-02 16:11:00,
2013-05-02 12:14:00,59.2,55.0,30.31,ENE,68,2.0,-999.0,86,0.00,,,0.12,Wunderground v.1.15,2013-05-02 16:14:00,
2013-05-02 12:16:00,59.2,55.0,30.31,ENE,68,2.0,-999.0,86,0.00,,,0.12,Wunderground v.1.15,2013-05-02 16:16:00,
2013-05-02 12:19:00,59.1,54.9,30.31,ENE,68,1.0,-999.0,86,0.00,,,0.12,Wunderground v.1.15,2013-05-02 16:19:00,
2013-05-02 12:21:00,59.1,54.9,30.31,ENE,68,1.0,-999.0,86,0.00,,,0.12,Wunderground v.1.15,2013-05-02 16:21:00,
2013-05-02 12:24:00,59.2,55.6,30.31,ENE,68,1.0,-999.0,88,0.00,,,0.12,Wunderground v.1.15,2013-05-02 16:24:00,
2013-05-02 12:26:00,59.2,55.6,30.31,ENE,68,1.0,-999.0,88,0.00,,,0.12,Wunderground v.1.15,2013-05-02 16:26:00,
2013-05-02 12:29:00,59.4,55.8,30.31,East,90,1.0,-999.0,88,0.00,,,0.12,Wunderground v.1.15,2013-05-02 16:29:00,
2013-05-02 12:31:00,59.4,55.8,30.31,East,90,1.0,-999.0,88,0.00,,,0.12,Wunderground v.1.15,2013-05-02 16:31:00,
2013-05-02 12:34:00,59.4,55.8,30.31,ENE,68,1.0,-999.0,88,0.00,,,0.12,Wunderground v.1.15,2013-05-02 16:34:00,
2013-05-02 12:36:00,59.4,55.8,30.31,ENE,68,1.0,-999.0,88,0.00,,,0.12,Wunderground v.1.15,2013-05-02 16:36:00,
2013-05-02 12:39:00,59.2,55.3,30.31,ENE,68,1.0,-999.0,87,0.00,,,0.12,Wunderground v.1.15,2013-05-02 16:39:00,
2013-05-02 12:41:00,59.2,55.3,30.31,ENE,68,1.0,-999.0,87,0.00,,,0.12,Wunderground v.1.15,2013-05-02 16:41:00,
2013-05-02 12:44:00,59.1,55.5,30.32,ENE,68,2.0,-999.0,88,0.00,,,0.12,Wunderground v.1.15,2013-05-02 16:44:00,
2013-05-02 12:46:00,59.1,55.5,30.32,ENE,68,2.0,-999.0,88,0.00,,,0.12,Wunderground v.1.15,2013-05-02 16:46:00,
2013-05-02 12:49:00,58.9,55.4,30.31,ENE,68,1.0,-999.0,88,0.00,,,0.12,Wunderground v.1.15,2013-05-02 16:49:00,
2013-05-02 12:51:00,58.9,55.4,30.31,ENE,68,1.0,-999.0,88,0.00,,,0.12,Wunderground v.1.15,2013-05-02 16:51:00,
2013-05-02 12:54:00,58.9,55.4,30.32,ENE,68,1.0,-999.0,88,0.00,,,0.12,Wunderground v.1.15,2013-05-02 16:54:00,
2013-05-02 12:56:00,58.9,55.4,30.32,ENE,68,1.0,-999.0,88,0.00,,,0.12,Wunderground v.1.15,2013-05-02 16:56:00,
2013-05-02 12:59:00,58.8,55.6,30.31,ENE,68,1.0,-999.0,89,0.00,,,0.12,Wunderground v.1.15,2013-05-02 16:59:00,
2013-05-02 13:01:00,58.8,55.6,30.31,ENE,68,1.0,-999.0,89,0.00,,,0.12,Wunderground v.1.15,2013-05-02 17:01:00,
2013-05-02 13:04:00,58.7,55.2,30.31,ENE,68,1.0,-999.0,88,0.00,,,0.12,Wunderground v.1.15,2013-05-02 17:04:00,
2013-05-02 13:06:00,58.7,55.2,30.31,ENE,68,1.0,-999.0,88,0.00,,,0.12,Wunderground v.1.15,2013-05-02 17:06:00,
2013-05-02 13:09:00,58.7,55.5,30.31,NE,45,1.0,-999.0,89,0.00,,,0.12,Wunderground v.1.15,2013-05-02 17:09:00,
2013-05-02 13:11:00,58.7,55.5,30.31,NE,45,1.0,-999.0,89,0.00,,,0.12,Wunderground v.1.15,2013-05-02 17:11:00,
2013-05-02 13:14:00,58.6,55.1,30.31,ENE,68,1.0,-999.0,88,0.00,,,0.12,Wunderground v.1.15,2013-05-02 17:14:00,
2013-05-02 13:16:00,58.6,55.1,30.31,ENE,68,1.0,-999.0,88,0.00,,,0.12,Wunderground v.1.15,2013-05-02 17:16:00,
2013-05-02 13:19:00,58.6,55.4,30.31,East,90,0.0,-999.0,89,0.00,,,0.12,Wunderground v.1.15,2013-05-02 17:19:00,
2013-05-02 13:21:00,58.6,55.4,30.31,East,90,0.0,-999.0,89,0.00,,,0.12,Wunderground v.1.15,2013-05-02 17:21:00,
2013-05-02 13:24:00,58.6,55.4,30.31,ENE,68,2.0,-999.0,89,0.00,,,0.12,Wunderground v.1.15,2013-05-02 17:24:00,
2013-05-02 13:26:00,58.6,55.4,30.31,ENE,68,2.0,-999.0,89,0.00,,,0.12,Wunderground v.1.15,2013-05-02 17:26:00,
2013-05-02 13:29:00,58.6,55.4,30.31,NW,315,2.0,-999.0,89,0.00,,,0.12,Wunderground v.1.15,2013-05-02 17:29:00,
2013-05-02 13:31:00,58.6,55.4,30.31,NW,315,2.0,-999.0,89,0.00,,,0.12,Wunderground v.1.15,2013-05-02 17:31:00,
2013-05-02 13:34:00,58.5,55.3,30.31,NE,45,2.0,-999.0,89,0.00,,,0.12,Wunderground v.1.15,2013-05-02 17:34:00,
2013-05-02 13:36:00,58.5,55.3,30.31,NE,45,2.0,-999.0,89,0.00,,,0.12,Wunderground v.1.15,2013-05-02 17:36:00,
2013-05-02 13:39:00,58.6,55.4,30.31,ENE,68,1.0,-999.0,89,0.00,,,0.12,Wunderground v.1.15,2013-05-02 17:39:00,
2013-05-02 13:41:00,58.6,55.4,30.31,ENE,68,1.0,-999.0,89,0.00,,,0.12,Wunderground v.1.15,2013-05-02 17:41:00,
2013-05-02 13:44:00,58.6,55.4,30.31,ENE,68,1.0,-999.0,89,0.00,,,0.12,Wunderground v.1.15,2013-05-02 17:44:00,
2013-05-02 13:46:00,58.6,55.4,30.31,ENE,68,1.0,-999.0,89,0.00,,,0.12,Wunderground v.1.15,2013-05-02 17:46:00,
2013-05-02 13:49:00,58.8,55.9,30.31,N/A,-737280,0.0,-999.0,90,0.00,,,0.12,Wunderground v.1.15,2013-05-02 17:49:00,
2013-05-02 13:51:00,58.8,55.9,30.31,N/A,-737280,0.0,-999.0,90,0.00,,,0.12,Wunderground v.1.15,2013-05-02 17:51:00,
2013-05-02 13:54:00,58.9,55.7,30.31,ENE,68,1.0,-999.0,89,0.00,,,0.12,Wunderground v.1.15,2013-05-02 17:54:00,
2013-05-02 13:56:00,58.9,55.7,30.31,ENE,68,1.0,-999.0,89,0.00,,,0.12,Wunderground v.1.15,2013-05-02 17:56:00,
2013-05-02 13:59:00,58.9,55.4,30.31,NE,45,1.0,-999.0,88,0.00,,,0.12,Wunderground v.1.15,2013-05-02 17:59:00,
2013-05-02 14:01:00,58.9,55.4,30.31,NE,45,1.0,-999.0,88,0.00,,,0.12,Wunderground v.1.15,2013-05-02 18:01:00,
2013-05-02 14:04:00,59.1,55.5,30.31,ENE,68,1.0,-999.0,88,0.00,,,0.12,Wunderground v.1.15,2013-05-02 18:04:00,
2013-05-02 14:06:00,59.1,55.5,30.31,ENE,68,1.0,-999.0,88,0.00,,,0.12,Wunderground v.1.15,2013-05-02 18:06:00,
2013-05-02 14:09:00,59.4,55.8,30.31,NE,45,1.0,-999.0,88,0.00,,,0.12,Wunderground v.1.15,2013-05-02 18:09:00,
2013-05-02 14:11:00,59.4,55.8,30.31,NE,45,1.0,-999.0,88,0.00,,,0.12,Wunderground v.1.15,2013-05-02 18:11:00,
2013-05-02 14:14:00,59.8,55.9,30.31,North,0,1.0,-999.0,87,0.00,,,0.12,Wunderground v.1.15,2013-05-02 18:14:00,
2013-05-02 14:16:00,59.8,55.9,30.31,North,0,1.0,-999.0,87,0.00,,,0.12,Wunderground v.1.15,2013-05-02 18:16:00,
2013-05-02 14:19:00,60.1,56.5,30.31,East,90,1.0,-999.0,88,0.00,,,0.12,Wunderground v.1.15,2013-05-02 18:19:00,
2013-05-02 14:21:00,60.1,56.5,30.31,East,90,1.0,-999.0,88,0.00,,,0.12,Wunderground v.1.15,2013-05-02 18:21:00,
2013-05-02 14:24:00,60.4,56.8,30.30,NE,45,0.0,-999.0,88,0.00,,,0.12,Wunderground v.1.15,2013-05-02 18:24:00,
2013-05-02 14:26:00,60.4,56.8,30.30,NE,45,0.0,-999.0,88,0.00,,,0.12,Wunderground v.1.15,2013-05-02 18:26:00,
2013-05-02 14:29:00,60.8,56.6,30.30,ENE,68,0.0,-999.0,86,0.00,,,0.12,Wunderground v.1.15,2013-05-02 18:29:00,
2013-05-02 14:31:00,60.8,56.6,30.30,ENE,68,0.0,-999.0,86,0.00,,,0.12,Wunderground v.1.15,2013-05-02 18:31:00,
2013-05-02 14:34:00,61.2,57.0,30.30,NE,45,1.0,-999.0,86,0.00,,,0.12,Wunderground v.1.15,2013-05-02 18:34:00,
2013-05-02 14:36:00,61.2,57.0,30.30,NE,45,1.0,-999.0,86,0.00,,,0.12,Wunderground v.1.15,2013-05-02 18:36:00,
2013-05-02 14:39:00,61.2,56.3,30.30,NNE,23,1.0,-999.0,84,0.00,,,0.12,Wunderground v.1.15,2013-05-02 18:39:00,
2013-05-02 14:41:00,61.2,56.3,30.30,NNE,23,1.0,-999.0,84,0.00,,,0.12,Wunderground v.1.15,2013-05-02 18:41:00,
2013-05-02 14:44:00,61.0,56.5,30.30,NNE,23,1.0,-999.0,85,0.00,,,0.12,Wunderground v.1.15,2013-05-02 18:44:00,
2013-05-02 14:46:00,61.0,56.5,30.30,NNE,23,1.0,-999.0,85,0.00,,,0.12,Wunderground v.1.15,2013-05-02 18:46:00,
2013-05-02 14:49:00,60.9,56.7,30.30,NE,45,1.0,-999.0,86,0.00,,,0.12,Wunderground v.1.15,2013-05-02 18:49:00,
2013-05-02 14:51:00,60.9,56.7,30.30,NE,45,1.0,-999.0,86,0.00,,,0.12,Wunderground v.1.15,2013-05-02 18:51:00,
2013-05-02 14:54:00,60.9,56.0,30.30,ENE,68,1.0,-999.0,84,0.00,,,0.12,Wunderground v.1.15,2013-05-02 18:54:00,
2013-05-02 14:56:00,60.9,56.0,30.30,ENE,68,1.0,-999.0,84,0.00,,,0.12,Wunderground v.1.15,2013-05-02 18:56:00,
2013-05-02 14:59:00,61.0,56.5,30.29,ENE,68,0.0,-999.0,85,0.00,,,0.12,Wunderground v.1.15,2013-05-02 18:59:00,
2013-05-02 15:01:00,61.0,56.5,30.29,ENE,68,0.0,-999.0,85,0.00,,,0.12,Wunderground v.1.15,2013-05-02 19:01:00,
2013-05-02 15:04:00,61.1,56.6,30.30,ENE,68,1.0,-999.0,85,0.00,,,0.12,Wunderground v.1.15,2013-05-02 19:04:00,
2013-05-02 15:06:00,61.1,56.6,30.30,ENE,68,1.0,-999.0,85,0.00,,,0.12,Wunderground v.1.15,2013-05-02 19:06:00,
2013-05-02 15:09:00,61.4,57.2,30.30,West,270,0.0,-999.0,86,0.00,,,0.12,Wunderground v.1.15,2013-05-02 19:09:00,
2013-05-02 15:11:00,61.4,57.2,30.30,West,270,0.0,-999.0,86,0.00,,,0.12,Wunderground v.1.15,2013-05-02 19:11:00,
2013-05-02 15:14:00,61.5,56.9,30.30,ENE,68,0.0,-999.0,85,0.00,,,0.12,Wunderground v.1.15,2013-05-02 19:14:00,
2013-05-02 15:16:00,61.5,56.9,30.30,ENE,68,0.0,-999.0,85,0.00,,,0.12,Wunderground v.1.15,2013-05-02 19:16:00,
2013-05-02 15:19:00,61.6,56.7,30.29,North,0,1.0,-999.0,84,0.00,,,0.12,Wunderground v.1.15,2013-05-02 19:19:00,
2013-05-02 15:21:00,61.6,56.7,30.29,North,0,1.0,-999.0,84,0.00,,,0.12,Wunderground v.1.15,2013-05-02 19:21:00,
2013-05-02 15:24:00,61.6,56.7,30.29,ENE,68,1.0,-999.0,84,0.00,,,0.12,Wunderground v.1.15,2013-05-02 19:24:00,
2013-05-02 15:26:00,61.6,56.7,30.29,ENE,68,1.0,-999.0,84,0.00,,,0.12,Wunderground v.1.15,2013-05-02 19:26:00,
2013-05-02 15:29:00,61.6,56.7,30.29,East,90,1.0,-999.0,84,0.00,,,0.12,Wunderground v.1.15,2013-05-02 19:29:00,
2013-05-02 15:31:00,61.6,56.7,30.29,East,90,1.0,-999.0,84,0.00,,,0.12,Wunderground v.1.15,2013-05-02 19:31:00,
2013-05-02 15:34:00,61.6,56.7,30.29,East,90,0.0,-999.0,84,0.00,,,0.12,Wunderground v.1.15,2013-05-02 19:34:00,
2013-05-02 15:36:00,61.6,56.7,30.29,East,90,0.0,-999.0,84,0.00,,,0.12,Wunderground v.1.15,2013-05-02 19:36:00,
2013-05-02 15:39:00,61.5,56.6,30.29,East,90,1.0,-999.0,84,0.00,,,0.12,Wunderground v.1.15,2013-05-02 19:39:00,
2013-05-02 15:41:00,61.5,56.6,30.29,East,90,1.0,-999.0,84,0.00,,,0.12,Wunderground v.1.15,2013-05-02 19:41:00,
2013-05-02 15:44:00,61.4,56.8,30.29,ENE,68,0.0,-999.0,85,0.00,,,0.12,Wunderground v.1.15,2013-05-02 19:44:00,
2013-05-02 15:46:00,61.4,56.8,30.29,ENE,68,0.0,-999.0,85,0.00,,,0.12,Wunderground v.1.15,2013-05-02 19:46:00,
2013-05-02 15:49:00,61.3,56.8,30.28,NE,45,1.0,-999.0,85,0.00,,,0.12,Wunderground v.1.15,2013-05-02 19:49:00,
2013-05-02 15:51:00,61.3,56.8,30.28,NE,45,1.0,-999.0,85,0.00,,,0.12,Wunderground v.1.15,2013-05-02 19:51:00,
2013-05-02 15:54:00,61.1,56.6,30.28,East,90,1.0,-999.0,85,0.00,,,0.12,Wunderground v.1.15,2013-05-02 19:54:00,
2013-05-02 15:56:00,61.1,56.6,30.28,East,90,1.0,-999.0,85,0.00,,,0.12,Wunderground v.1.15,2013-05-02 19:56:00,
2013-05-02 15:59:00,61.1,56.6,30.28,ENE,68,1.0,-999.0,85,0.00,,,0.12,Wunderground v.1.15,2013-05-02 19:59:00,
2013-05-02 16:01:00,61.1,56.6,30.28,ENE,68,1.0,-999.0,85,0.00,,,0.12,Wunderground v.1.15,2013-05-02 20:01:00,
2013-05-02 16:04:00,61.2,56.3,30.28,ENE,68,1.0,-999.0,84,0.00,,,0.12,Wunderground v.1.15,2013-05-02 20:04:00,
2013-05-02 16:06:00,61.2,56.3,30.28,ENE,68,1.0,-999.0,84,0.00,,,0.12,Wunderground v.1.15,2013-05-02 20:06:00,
2013-05-02 16:09:00,61.2,56.7,30.28,NE,45,0.0,-999.0,85,0.00,,,0.12,Wunderground v.1.15,2013-05-02 20:09:00,
2013-05-02 16:11:00,61.2,56.7,30.28,NE,45,0.0,-999.0,85,0.00,,,0.12,Wunderground v.1.15,2013-05-02 20:11:00,
2013-05-02 16:14:00,61.3,56.8,30.27,West,270,1.0,-999.0,85,0.00,,,0.12,Wunderground v.1.15,2013-05-02 20:14:00,
2013-05-02 16:16:00,61.3,56.8,30.27,West,270,1.0,-999.0,85,0.00,,,0.12,Wunderground v.1.15,2013-05-02 20:16:00,
2013-05-02 16:19:00,61.5,56.6,30.27,WNW,293,0.0,-999.0,84,0.00,,,0.12,Wunderground v.1.15,2013-05-02 20:19:00,
2013-05-02 16:21:00,61.5,56.6,30.27,WNW,293,0.0,-999.0,84,0.00,,,0.12,Wunderground v.1.15,2013-05-02 20:21:00,
2013-05-02 16:24:00,61.6,56.7,30.27,NE,45,1.0,-999.0,84,0.00,,,0.12,Wunderground v.1.15,2013-05-02 20:24:00,
2013-05-02 16:26:00,61.6,56.7,30.27,NE,45,1.0,-999.0,84,0.00,,,0.12,Wunderground v.1.15,2013-05-02 20:26:00,
2013-05-02 16:29:00,61.5,56.6,30.27,NE,45,1.0,-999.0,84,0.00,,,0.12,Wunderground v.1.15,2013-05-02 20:29:00,
2013-05-02 16:31:00,61.5,56.6,30.27,NE,45,1.0,-999.0,84,0.00,,,0.12,Wunderground v.1.15,2013-05-02 20:31:00,
2013-05-02 16:34:00,61.4,56.8,30.27,NE,45,1.0,-999.0,85,0.00,,,0.12,Wunderground v.1.15,2013-05-02 20:34:00,
2013-05-02 16:36:00,61.4,56.8,30.27,NE,45,1.0,-999.0,85,0.00,,,0.12,Wunderground v.1.15,2013-05-02 20:36:00,
2013-05-02 16:39:00,61.4,56.8,30.27,ENE,68,0.0,-999.0,85,0.00,,,0.12,Wunderground v.1.15,2013-05-02 20:39:00,
2013-05-02 16:41:00,61.4,56.8,30.27,ENE,68,0.0,-999.0,85,0.00,,,0.12,Wunderground v.1.15,2013-05-02 20:41:00,
2013-05-02 16:44:00,61.3,56.8,30.27,ENE,68,1.0,-999.0,85,0.00,,,0.12,Wunderground v.1.15,2013-05-02 20:44:00,
2013-05-02 16:46:00,61.3,56.8,30.27,ENE,68,1.0,-999.0,85,0.00,,,0.12,Wunderground v.1.15,2013-05-02 20:46:00,
2013-05-02 16:49:00,61.1,56.6,30.27,ENE,68,1.0,-999.0,85,0.00,,,0.12,Wunderground v.1.15,2013-05-02 20:49:00,
2013-05-02 16:51:00,61.1,56.6,30.27,ENE,68,1.0,-999.0,85,0.00,,,0.12,Wunderground v.1.15,2013-05-02 20:51:00,
2013-05-02 16:54:00,61.1,56.6,30.26,East,90,0.0,-999.0,85,0.00,,,0.12,Wunderground v.1.15,2013-05-02 20:54:00,
2013-05-02 16:56:00,61.1,56.6,30.26,East,90,0.0,-999.0,85,0.00,,,0.12,Wunderground v.1.15,2013-05-02 20:56:00,
2013-05-02 16:59:00,61.1,56.6,30.26,WSW,248,1.0,-999.0,85,0.00,,,0.12,Wunderground v.1.15,2013-05-02 20:59:00,
2013-05-02 17:01:00,61.1,56.6,30.26,WSW,248,1.0,-999.0,85,0.00,,,0.12,Wunderground v.1.15,2013-05-02 21:01:00,
2013-05-02 17:04:00,61.0,56.5,30.26,East,90,2.0,-999.0,85,0.00,,,0.12,Wunderground v.1.15,2013-05-02 21:04:00,
2013-05-02 17:06:00,61.0,56.5,30.26,East,90,2.0,-999.0,85,0.00,,,0.12,Wunderground v.1.15,2013-05-02 21:06:00,
2013-05-02 17:09:00,60.8,56.3,30.26,East,90,1.0,-999.0,85,0.00,,,0.12,Wunderground v.1.15,2013-05-02 21:09:00,
2013-05-02 17:11:00,60.8,56.3,30.26,East,90,1.0,-999.0,85,0.00,,,0.12,Wunderground v.1.15,2013-05-02 21:11:00,
2013-05-02 17:14:00,60.6,56.4,30.26,N/A,-737280,0.0,-999.0,86,0.00,,,0.12,Wunderground v.1.15,2013-05-02 21:14:00,
2013-05-02 17:16:00,60.6,56.4,30.26,N/A,-737280,0.0,-999.0,86,0.00,,,0.12,Wunderground v.1.15,2013-05-02 21:16:00,
2013-05-02 17:19:00,60.5,56.3,30.26,NE,45,0.0,-999.0,86,0.00,,,0.12,Wunderground v.1.15,2013-05-02 21:19:00,
2013-05-02 17:21:00,60.5,56.3,30.26,NE,45,0.0,-999.0,86,0.00,,,0.12,Wunderground v.1.15,2013-05-02 21:21:00,
2013-05-02 17:24:00,60.4,56.5,30.25,NE,45,0.0,-999.0,87,0.00,,,0.12,Wunderground v.1.15,2013-05-02 21:24:00,
2013-05-02 17:26:00,60.4,56.5,30.25,NE,45,0.0,-999.0,87,0.00,,,0.12,Wunderground v.1.15,2013-05-02 21:26:00,
2013-05-02 17:29:00,60.5,56.9,30.26,NE,45,0.0,-999.0,88,0.00,,,0.12,Wunderground v.1.15,2013-05-02 21:29:00,
2013-05-02 17:31:00,60.5,56.9,30.26,NE,45,0.0,-999.0,88,0.00,,,0.12,Wunderground v.1.15,2013-05-02 21:31:00,
2013-05-02 17:34:00,60.6,56.7,30.26,NNE,23,1.0,-999.0,87,0.00,,,0.12,Wunderground v.1.15,2013-05-02 21:34:00,
2013-05-02 17:36:00,60.6,56.7,30.26,NNE,23,1.0,-999.0,87,0.00,,,0.12,Wunderground v.1.15,2013-05-02 21:36:00,
2013-05-02 17:39:00,60.5,56.6,30.25,East,90,1.0,-999.0,87,0.00,,,0.12,Wunderground v.1.15,2013-05-02 21:39:00,
2013-05-02 17:41:00,60.5,56.6,30.25,East,90,1.0,-999.0,87,0.00,,,0.12,Wunderground v.1.15,2013-05-02 21:41:00,
2013-05-02 17:44:00,60.4,56.5,30.25,ENE,68,1.0,-999.0,87,0.00,,,0.12,Wunderground v.1.15,2013-05-02 21:44:00,
2013-05-02 17:46:00,60.4,56.5,30.25,ENE,68,1.0,-999.0,87,0.00,,,0.12,Wunderground v.1.15,2013-05-02 21:46:00,
2013-05-02 17:49:00,60.5,56.3,30.25,ENE,68,1.0,-999.0,86,0.00,,,0.12,Wunderground v.1.15,2013-05-02 21:49:00,
2013-05-02 17:51:00,60.5,56.3,30.25,ENE,68,1.0,-999.0,86,0.00,,,0.12,Wunderground v.1.15,2013-05-02 21:51:00,
2013-05-02 17:54:00,60.6,56.4,30.25,ENE,68,1.0,-999.0,86,0.00,,,0.12,Wunderground v.1.15,2013-05-02 21:54:00,
2013-05-02 17:56:00,60.6,56.4,30.25,ENE,68,1.0,-999.0,86,0.00,,,0.12,Wunderground v.1.15,2013-05-02 21:56:00,
2013-05-02 17:59:00,60.7,56.5,30.25,ENE,68,0.0,-999.0,86,0.00,,,0.12,Wunderground v.1.15,2013-05-02 21:59:00,
2013-05-02 18:01:00,60.7,56.5,30.25,ENE,68,0.0,-999.0,86,0.00,,,0.12,Wunderground v.1.15,2013-05-02 22:01:00,
2013-05-02 18:04:00,60.7,56.5,30.25,WNW,293,1.0,-999.0,86,0.00,,,0.12,Wunderground v.1.15,2013-05-02 22:04:00,
2013-05-02 18:06:00,60.7,56.5,30.25,WNW,293,1.0,-999.0,86,0.00,,,0.12,Wunderground v.1.15,2013-05-02 22:06:00,
2013-05-02 18:09:00,60.6,56.4,30.25,WNW,293,0.0,-999.0,86,0.00,,,0.12,Wunderground v.1.15,2013-05-02 22:09:00,
2013-05-02 18:11:00,60.6,56.4,30.25,WNW,293,0.0,-999.0,86,0.00,,,0.12,Wunderground v.1.15,2013-05-02 22:11:00,
2013-05-02 18:14:00,60.4,56.5,30.25,East,90,0.0,-999.0,87,0.00,,,0.12,Wunderground v.1.15,2013-05-02 22:14:00,
2013-05-02 18:16:00,60.4,56.5,30.25,East,90,0.0,-999.0,87,0.00,,,0.12,Wunderground v.1.15,2013-05-02 22:16:00,
2013-05-02 18:19:00,60.3,56.4,30.25,NE,45,0.0,-999.0,87,0.00,,,0.12,Wunderground v.1.15,2013-05-02 22:19:00,
2013-05-02 18:21:00,60.3,56.4,30.25,NE,45,0.0,-999.0,87,0.00,,,0.12,Wunderground v.1.15,2013-05-02 22:21:00,
2013-05-02 18:24:00,60.3,56.4,30.25,N/A,-737280,0.0,-999.0,87,0.00,,,0.12,Wunderground v.1.15,2013-05-02 22:24:00,
2013-05-02 18:26:00,60.3,56.4,30.25,N/A,-737280,0.0,-999.0,87,0.00,,,0.12,Wunderground v.1.15,2013-05-02 22:26:00,
2013-05-02 18:29:00,60.1,56.5,30.25,N/A,-737280,0.0,-999.0,88,0.00,,,0.12,Wunderground v.1.15,2013-05-02 22:29:00,
2013-05-02 18:31:00,60.1,56.5,30.25,N/A,-737280,0.0,-999.0,88,0.00,,,0.12,Wunderground v.1.15,2013-05-02 22:31:00,
2013-05-02 18:34:00,60.1,56.5,30.25,N/A,-737280,0.0,-999.0,88,0.00,,,0.12,Wunderground v.1.15,2013-05-02 22:34:00,
2013-05-02 18:36:00,60.1,56.5,30.25,N/A,-737280,0.0,-999.0,88,0.00,,,0.12,Wunderground v.1.15,2013-05-02 22:36:00,
2013-05-02 18:39:00,60.0,56.7,30.25,N/A,-737280,0.0,-999.0,89,0.00,,,0.12,Wunderground v.1.15,2013-05-02 22:39:00,
2013-05-02 18:41:00,60.0,56.7,30.25,N/A,-737280,0.0,-999.0,89,0.00,,,0.12,Wunderground v.1.15,2013-05-02 22:41:00,
2013-05-02 18:44:00,59.9,56.6,30.24,N/A,-737280,0.0,-999.0,89,0.00,,,0.12,Wunderground v.1.15,2013-05-02 22:44:00,
2013-05-02 18:46:00,59.9,56.6,30.24,N/A,-737280,0.0,-999.0,89,0.00,,,0.12,Wunderground v.1.15,2013-05-02 22:46:00,
2013-05-02 18:49:00,59.8,56.6,30.24,N/A,-737280,0.0,-999.0,89,0.00,,,0.12,Wunderground v.1.15,2013-05-02 22:49:00,
2013-05-02 18:51:00,59.8,56.6,30.24,N/A,-737280,0.0,-999.0,89,0.00,,,0.12,Wunderground v.1.15,2013-05-02 22:51:00,
2013-05-02 18:54:00,59.8,56.6,30.24,N/A,-737280,0.0,-999.0,89,0.00,,,0.12,Wunderground v.1.15,2013-05-02 22:54:00,
2013-05-02 18:56:00,59.8,56.6,30.24,N/A,-737280,0.0,-999.0,89,0.00,,,0.12,Wunderground v.1.15,2013-05-02 22:56:00,
2013-05-02 18:59:00,59.7,56.8,30.24,N/A,-737280,0.0,-999.0,90,0.00,,,0.12,Wunderground v.1.15,2013-05-02 22:59:00,
2013-05-02 19:01:00,59.7,56.8,30.24,N/A,-737280,0.0,-999.0,90,0.00,,,0.12,Wunderground v.1.15,2013-05-02 23:01:00,
2013-05-02 19:04:00,59.7,56.8,30.24,N/A,-737280,0.0,-999.0,90,0.00,,,0.12,Wunderground v.1.15,2013-05-02 23:04:00,
2013-05-02 19:06:00,59.7,56.8,30.24,N/A,-737280,0.0,-999.0,90,0.00,,,0.12,Wunderground v.1.15,2013-05-02 23:06:00,
2013-05-02 19:09:00,59.6,56.4,30.24,N/A,-737280,0.0,-999.0,89,0.00,,,0.12,Wunderground v.1.15,2013-05-02 23:09:00,
2013-05-02 19:11:00,59.6,56.4,30.24,N/A,-737280,0.0,-999.0,89,0.00,,,0.12,Wunderground v.1.15,2013-05-02 23:11:00,
2013-05-02 19:14:00,59.6,56.4,30.24,SSW,203,0.0,-999.0,89,0.00,,,0.12,Wunderground v.1.15,2013-05-02 23:14:00,
2013-05-02 19:16:00,59.6,56.4,30.24,SSW,203,0.0,-999.0,89,0.00,,,0.12,Wunderground v.1.15,2013-05-02 23:16:00,
2013-05-02 19:19:00,59.6,56.4,30.24,N/A,-737280,0.0,-999.0,89,0.00,,,0.12,Wunderground v.1.15,2013-05-02 23:19:00,
2013-05-02 19:21:00,59.6,56.4,30.24,N/A,-737280,0.0,-999.0,89,0.00,,,0.12,Wunderground v.1.15,2013-05-02 23:21:00,
2013-05-02 19:26:00,59.6,56.4,30.24,NNE,23,0.0,-999.0,89,0.00,,,0.12,Wunderground v.1.15,2013-05-02 23:26:00,
2013-05-02 19:31:00,59.5,56.3,30.24,WNW,293,0.0,-999.0,89,0.00,,,0.12,Wunderground v.1.15,2013-05-02 23:31:00,
2013-05-02 19:36:00,59.5,56.3,30.25,North,0,0.0,-999.0,89,0.00,,,0.12,Wunderground v.1.15,2013-05-02 23:36:00,
2013-05-02 19:41:00,59.4,56.2,30.24,NE,45,0.0,-999.0,89,0.00,,,0.12,Wunderground v.1.15,2013-05-02 23:41:00,
2013-05-02 19:46:00,59.4,56.2,30.25,NE,45,0.0,-999.0,89,0.00,,,0.12,Wunderground v.1.15,2013-05-02 23:46:00,
2013-05-02 19:51:00,59.3,56.4,30.25,N/A,-737280,0.0,-999.0,90,0.00,,,0.12,Wunderground v.1.15,2013-05-02 23:51:00,
2013-05-02 19:56:00,59.3,56.4,30.25,N/A,-737280,0.0,-999.0,90,0.00,,,0.12,Wunderground v.1.15,2013-05-02 23:56:00,
2013-05-02 20:01:00,59.2,56.3,30.25,N/A,-737280,0.0,-999.0,90,0.00,,,0.12,Wunderground v.1.15,2013-05-03 00:01:00,
2013-05-02 20:06:00,59.1,56.2,30.25,N/A,-737280,0.0,-999.0,90,0.00,,,0.12,Wunderground v.1.15,2013-05-03 00:06:00,
2013-05-02 20:11:00,58.9,56.0,30.26,N/A,-737280,0.0,-999.0,90,0.00,,,0.12,Wunderground v.1.15,2013-05-03 00:11:00,
2013-05-02 20:16:00,58.9,56.3,30.26,N/A,-737280,0.0,-999.0,91,0.00,,,0.12,Wunderground v.1.15,2013-05-03 00:16:00,
2013-05-02 20:21:00,58.7,56.1,30.26,N/A,-737280,0.0,-999.0,91,0.00,,,0.12,Wunderground v.1.15,2013-05-03 00:21:00,
2013-05-02 20:26:00,58.7,56.1,30.26,N/A,-737280,0.0,-999.0,91,0.00,,,0.12,Wunderground v.1.15,2013-05-03 00:26:00,
2013-05-02 20:31:00,58.6,56.0,30.26,N/A,-737280,0.0,-999.0,91,0.00,,,0.12,Wunderground v.1.15,2013-05-03 00:31:00,
2013-05-02 20:36:00,58.5,56.2,30.26,N/A,-737280,0.0,-999.0,92,0.00,,,0.12,Wunderground v.1.15,2013-05-03 00:36:00,
2013-05-02 20:41:00,58.4,56.1,30.26,N/A,-737280,0.0,-999.0,92,0.00,,,0.12,Wunderground v.1.15,2013-05-03 00:41:00,
2013-05-02 20:46:00,58.3,56.0,30.26,N/A,-737280,0.0,-999.0,92,0.00,,,0.12,Wunderground v.1.15,2013-05-03 00:46:00,
2013-05-02 20:51:00,58.2,55.9,30.26,N/A,-737280,0.0,-999.0,92,0.00,,,0.12,Wunderground v.1.15,2013-05-03 00:51:00,
2013-05-02 20:56:00,58.1,56.1,30.26,N/A,-737280,0.0,-999.0,93,0.00,,,0.12,Wunderground v.1.15,2013-05-03 00:56:00,
2013-05-02 21:01:00,58.1,56.1,30.26,N/A,-737280,0.0,-999.0,93,0.00,,,0.12,Wunderground v.1.15,2013-05-03 01:01:00,
2013-05-02 21:06:00,58.0,56.0,30.26,N/A,-737280,0.0,-999.0,93,0.00,,,0.12,Wunderground v.1.15,2013-05-03 01:06:00,
2013-05-02 21:11:00,57.9,55.9,30.27,N/A,-737280,0.0,-999.0,93,0.00,,,0.12,Wunderground v.1.15,2013-05-03 01:11:00,
2013-05-02 21:16:00,57.9,56.2,30.27,N/A,-737280,0.0,-999.0,94,0.00,,,0.12,Wunderground v.1.15,2013-05-03 01:16:00,
2013-05-02 21:21:00,57.8,55.8,30.26,N/A,-737280,0.0,-999.0,93,0.00,,,0.12,Wunderground v.1.15,2013-05-03 01:21:00,
2013-05-02 21:26:00,57.7,55.7,30.27,N/A,-737280,0.0,-999.0,93,0.00,,,0.12,Wunderground v.1.15,2013-05-03 01:26:00,
2013-05-02 21:31:00,57.7,56.0,30.27,N/A,-737280,0.0,-999.0,94,0.00,,,0.12,Wunderground v.1.15,2013-05-03 01:31:00,
2013-05-02 21:36:00,57.6,55.9,30.27,N/A,-737280,0.0,-999.0,94,0.00,,,0.12,Wunderground v.1.15,2013-05-03 01:36:00,
2013-05-02 21:41:00,57.6,55.9,30.27,N/A,-737280,0.0,-999.0,94,0.00,,,0.12,Wunderground v.1.15,2013-05-03 01:41:00,
2013-05-02 21:46:00,57.6,55.9,30.27,N/A,-737280,0.0,-999.0,94,0.00,,,0.12,Wunderground v.1.15,2013-05-03 01:46:00,
2013-05-02 21:51:00,57.5,55.8,30.27,N/A,-737280,0.0,-999.0,94,0.00,,,0.12,Wunderground v.1.15,2013-05-03 01:51:00,
2013-05-02 21:56:00,57.5,55.8,30.27,NNW,338,0.0,-999.0,94,0.00,,,0.12,Wunderground v.1.15,2013-05-03 01:56:00,
2013-05-02 22:01:00,57.4,55.7,30.27,N/A,-737280,0.0,-999.0,94,0.00,,,0.12,Wunderground v.1.15,2013-05-03 02:01:00,
2013-05-02 22:06:00,57.4,55.7,30.27,NNW,338,0.0,-999.0,94,0.00,,,0.12,Wunderground v.1.15,2013-05-03 02:06:00,
2013-05-02 22:11:00,57.3,55.6,30.27,NE,45,0.0,-999.0,94,0.00,,,0.12,Wunderground v.1.15,2013-05-03 02:11:00,
2013-05-02 22:16:00,57.3,55.6,30.27,WNW,293,0.0,-999.0,94,0.00,,,0.12,Wunderground v.1.15,2013-05-03 02:16:00,
2013-05-02 22:21:00,57.2,55.8,30.27,WNW,293,0.0,-999.0,95,0.00,,,0.12,Wunderground v.1.15,2013-05-03 02:21:00,
2013-05-02 22:26:00,57.2,55.8,30.27,WNW,293,0.0,-999.0,95,0.00,,,0.12,Wunderground v.1.15,2013-05-03 02:26:00,
2013-05-02 22:31:00,57.1,55.7,30.27,N/A,-737280,0.0,-999.0,95,0.00,,,0.12,Wunderground v.1.15,2013-05-03 02:31:00,
2013-05-02 22:36:00,57.0,55.6,30.28,N/A,-737280,0.0,-999.0,95,0.00,,,0.12,Wunderground v.1.15,2013-05-03 02:36:00,
2013-05-02 22:41:00,56.9,55.8,30.27,N/A,-737280,0.0,-999.0,96,0.00,,,0.12,Wunderground v.1.15,2013-05-03 02:41:00,
2013-05-02 22:46:00,56.8,55.7,30.27,N/A,-737280,0.0,-999.0,96,0.00,,,0.12,Wunderground v.1.15,2013-05-03 02:46:00,
2013-05-02 22:51:00,56.8,55.7,30.27,NNW,338,0.0,-999.0,96,0.00,,,0.12,Wunderground v.1.15,2013-05-03 02:51:00,
2013-05-02 22:56:00,56.6,55.5,30.27,ENE,68,0.0,-999.0,96,0.00,,,0.12,Wunderground v.1.15,2013-05-03 02:56:00,
2013-05-02 23:01:00,56.5,55.4,30.27,ENE,68,0.0,-999.0,96,0.00,,,0.12,Wunderground v.1.15,2013-05-03 03:01:00,
2013-05-02 23:06:00,56.4,55.3,30.27,NNE,23,0.0,-999.0,96,0.00,,,0.12,Wunderground v.1.15,2013-05-03 03:06:00,
2013-05-02 23:11:00,56.4,55.6,30.27,NNE,23,0.0,-999.0,97,0.00,,,0.12,Wunderground v.1.15,2013-05-03 03:11:00,
2013-05-02 23:16:00,56.4,55.6,30.27,NNE,23,0.0,-999.0,97,0.00,,,0.12,Wunderground v.1.15,2013-05-03 03:16:00,
2013-05-02 23:21:00,56.3,55.5,30.27,NE,45,0.0,-999.0,97,0.00,,,0.12,Wunderground v.1.15,2013-05-03 03:21:00,
2013-05-02 23:26:00,56.2,55.4,30.26,N/A,-737280,0.0,-999.0,97,0.00,,,0.12,Wunderground v.1.15,2013-05-03 03:26:00,
2013-05-02 23:31:00,56.2,55.4,30.26,N/A,-737280,0.0,-999.0,97,0.00,,,0.12,Wunderground v.1.15,2013-05-03 03:31:00,
2013-05-02 23:36:00,56.1,55.3,30.25,N/A,-737280,0.0,-999.0,97,0.00,,,0.12,Wunderground v.1.15,2013-05-03 03:36:00,
2013-05-02 23:41:00,56.0,55.2,30.25,N/A,-737280,0.0,-999.0,97,0.00,,,0.12,Wunderground v.1.15,2013-05-03 03:41:00,
2013-05-02 23:46:00,56.0,55.2,30.25,N/A,-737280,0.0,-999.0,97,0.00,,,0.12,Wunderground v.1.15,2013-05-03 03:46:00,
2013-05-02 23:51:00,56.0,55.2,30.25,N/A,-737280,0.0,-999.0,97,0.00,,,0.12,Wunderground v.1.15,2013-05-03 03:51:00,
2013-05-02 23:56:00,55.9,55.1,30.25,N/A,-737280,0.0,-999.0,97,0.00,,,0.12,Wunderground v.1.15,2013-05-03 03:56:00,